Location: Lincolnton
(35.4660°N, 81.2500°W)
Time: 16:35:05
(UTC-04:00)

Hubble Space Telescope - Visible Passes

Search period start: 23 May 2017 00:00
Search period end: 02 June 2017 00:00
Orbit: 538 x 541 km, 28.5° (Epoch: 22 May)

Date Brightness Start Highest point End Pass type
(mag) Time Alt. Az. Time Alt. Az. Time Alt. Az.
23 May 2.6 04:23:16 17° SSE 04:23:16 17° SSE 04:24:45 10° SE visible
27 May 3.1 22:25:17 10° SW 22:25:49 12° SSW 22:25:49 12° SSW visible
28 May 2.4 22:14:57 10° SW 22:17:02 20° SSW 22:17:02 20° SSW visible
29 May 1.9 22:04:41 10° SW 22:08:03 26° S 22:08:03 26° S visible
30 May 1.7 21:54:28 10° SW 21:58:03 28° S 21:58:52 26° SSE visible
31 May 1.7 21:44:18 10° WSW 21:47:55 30° S 21:49:32 22° SE visible
01 Jun 1.7 21:34:08 10° WSW 21:37:47 31° S 21:40:05 18° SE visible
01 Jun 3.4 23:15:12 10° WSW 23:15:28 11° WSW 23:15:28 11° WSW visible
